NOAA 16 DEB, 41153

Orbit data source: Space-Track

NOAA 16 DEB, 41153 is space debris in SSO originally from a launch on Thu, 21 Sep 2000 UTC launched from the Air Force Western Test Range (AFWTR). Debris objects in space refer to the collection of defunct objects orbiting the Earth. Examples of debris include non-operational satellites, rocket bodies, and fragments generated from explosions, collisions, or faulty payload assembly.

Loading next visibility...
NOAA 16 DEB details
Identifier
41153, 2000-055CL
Orbit
SSO
Last TLE update1 day ago
Origin
Flag of USNOAA (US)
ManufacturerUnknown
MissionSpacecraft
Bus & MotorUnknown
MassUnknown
Launch date (UTC)
2000-09-21 (24 years ago)
Launch vehicleUnknown
Launch site
Air Force Western Test Range (AFWTR)
Object type
Payload
Rocket body
Debris
Shape & HBRUnknown
Radar Cross SectionSmall (<0.1 m²)

Expand to show TLE details & history

TLE from 1 day ago
0 NOAA 16 DEB
1 41153U 00055CL  24360.52557043  .00012568  00000-0  48337-2 0  9999
2 41153  98.7788  96.4816 0018150 284.9316  74.9856 14.30405573469465
Epoch: 2024-12-25T12:36Z
Definitive object data (Epoch: 2024-12-25T12:36:49.285Z)
Latitude-0.00003°
Longitude172.75819°
Altitude789.953 km
Speed7.46 km/s
True Right ascension06h 25m 55s
True Declination0° 00' 00"
Sunlit
Object was in full shadow at TLE epoch
Visualization TLE readout
Latitude65.80659°
Longitude14.18465°
Altitude814.318 km
Speed7.446 km/s
Apparent Right ascension12h 21m 35s
Apparent Declination40° 02' 11"
Sunlit
Object is in daylight
Visualization observer readout
Local Sidereal Time22:06:07
Azimuth334.669° NNW
Elevation-4.292°
Doppler factor1
Orbital elements
Apogee altitude800.529 km
Perigee altitude774.518 km
Semi-major axis7,165.661 km
Eccentricity0.001815
Inclination98.7788°
RAAN96.4816°
Arg. of periapsis284.9316°
True anomaly75.1866°
Mean anomaly74.9856°
Eccentric anomaly75.08609°
Mean motion3.57815 °/min
BSTAR0.0048337
Orbital period100.61 mins
Loading maneuver chart data...
Loading historical data...
Loading historical data...
Loading historical data...
Loading historical data...
Loading historical data...
Loading historical data...
Loading historical data...

NOAA 16 DEB Visibility forecast

Observer location: undefined°, undefined

Span
Click to sort rows by Start time (UTC) header in descending order
Start Az.
Max El. time (UTC)
Max El. Az.
Max El.
End time (UTC)
End Az.
8 mins2024-12-27 06:42:55.882Z172.831° S2024-12-27 06:45:55.882Z222.875° SW44.051°2024-12-27 06:50:55.882Z343.065° N
8 mins2024-12-27 18:55:55.882Z36.689° NE2024-12-27 18:59:55.882Z108.757° ESE31.894°2024-12-27 19:03:55.882Z164.612° S
7 mins2024-12-27 20:35:55.882Z337.401° NNW2024-12-27 20:38:55.882Z291.75° WNW23.361°2024-12-27 20:42:55.882Z240.735° WSW
|